PEGASUS DEB, 39310

Orbit data source: Space-Track

PEGASUS DEB, 39310 is space debris in LEO originally from a launch on Thu, 19 May 1994 UTC launched from the Air Force Western Test Range (AFWTR). Debris objects in space refer to the collection of defunct objects orbiting the Earth. Examples of debris include non-operational satellites, rocket bodies, and fragments generated from explosions, collisions, or faulty payload assembly.

Loading next visibility...
Identifier
39310, 1994-029AEV
Orbit
LEO
Country
Flag of USUS
Related business
Manufacturer
Unknown
Mission
Spacecraft
Bus & Motor
Unknown
Mass
Unknown
Launch date (UTC)
1994-05-19 (32 years ago)
Launch vehicle
Unknown
Launch site
Air Force Western Test Range (AFWTR)
Object type
Payload
Rocket body
Debris
Shape & HBR
Unknown shape, 0.1 m
Radar Cross Section
Small (<0.1 m²)

Expand to show TLE details & history
Last TLE update: 23 hours ago

TLE from 23 hours ago
0 PEGASUS DEB
1 39310U 94029AEV 26062.96669215  .00005694  00000-0  98427-3 0  9997
2 39310  81.8173 163.6784 0231864 293.1676  64.5244 14.52126187828908
Epoch: 2026-03-03T23:12Z
TLE epoch observation values (Epoch: 2026-03-03T23:12:02.201Z)
Latitude
-0.00005°
Longitude
13.93106°
Altitude
654.055 km
Speed
7.566 km/s
True Right ascension
10h 54m 42s
True Declination
0° 00' 00"
Sunlit
Object was in full shadow at epoch
Visualization orbit readout
Latitude
Unknown
Longitude
Unknown
Altitude
Unknown
Speed
Unknown
Apparent Right ascension
Unknown
Apparent Declination
Unknown
Sunlit
N/A
Visualization observer readout
Local Sidereal Time
01:38:53
Azimuth
Unknown
Elevation
Unknown
Doppler factor
Unknown
Orbital elements
Apogee altitude
880.284 km
Perigee altitude
551.318 km
Semi-major axis
7,093.938 km
Eccentricity
0.02319
Inclination
81.8173°
RAAN
163.6784°
Arg. of periapsis
293.1676°
True anomaly
66.95256°
Mean anomaly
64.5244°
Eccentric anomaly
65.73552°
Mean motion
3.63255 °/min
Orbital period
99.1 mins
BSTAR
0.00098427
Loading maneuver chart data...
Computing Atmospheric mass density...

Documentation

Showing up to 5 results
|